Regional Weather Roundup
Issued by NWS Cleveland, OH

Home | Current Version | Previous Version | Graphics & Text | Print | Product List | Glossary On
Versions: 1 2 3 4 5 6 7 8 9 10 11 12 13 14 15 16 17 18 19 20 21 22 23 24 25 26 27 28 29 30 31 32 33 34 35 36 37 38 39 40 41 42 43 44 45 46 47 48 49 50
000
ASUS41 KCLE 191112
RWRCLE
OHIO REGIONAL WEATHER ROUNDUP
NATIONAL WEATHER SERVICE WILMINGTON, OH
600 AM EST FRI JAN 19 2018

NOTE: "FAIR" INDICATES FEW OR NO CLOUDS BELOW 12,000 FEET WITH NO
SIGNIFICANT WEATHER AND/OR OBSTRUCTIONS TO VISIBILITY.

OHZ001>008-015>018-024>027-034-035-043-044-191200-
   NORTHWEST OHIO

CITY           SKY/WX    TMP DP  RH WIND       PRES   REMARKS
DEFIANCE       FAIR      21  12  68 SW10      30.03S WCI  10
FINDLAY        FAIR      25  13  60 SW14      30.04R WCI  13
TOLEDO EXPRESS FAIR      24  15  68 SW14      30.00S WCI  12
TOLEDO EXEC    FAIR      22  13  68 SW14      30.01S WCI   9
LIMA           FAIR      24  14  65 SW16      30.05S WCI  11
$$

OHZ009>014-019>023-028>033-038-089-191200-
   NORTHEAST OHIO

CITY           SKY/WX    TMP DP  RH WIND       PRES   REMARKS
CLE-HOPKINS    FAIR      25  12  58 S10       30.07R WCI  15
CLE-LAKEFRONT  FAIR      25  12  58 S13       30.05R WCI  14
CUY CO. ARPT   NOT AVBL
LORAIN-ELYRIA  FAIR      22   9  57 SW9       30.05R WCI  12
ASHTABULA      FAIR      21  11  65 S9        30.04R WCI  11
AKRON-CANTON   FAIR      20   9  62 SW13      30.06R WCI   7
WOOSTER        FAIR      20  11  68 SW13      30.06R WCI   7
MANSFIELD      FAIR      23  12  62 SW16      30.04S WCI  10
YOUNGSTOWN     FAIR      20  10  65 SW8       30.04R WCI  10
$$

OHZ042-051>053-060>062-070>072-077>081-191200-
  SOUTHWEST OHIO

CITY           SKY/WX    TMP DP  RH WIND       PRES   REMARKS
CINC-COVINGTON FAIR      20  12  71 S8        30.17S WCI  10
CINC-LUNKEN    FAIR      21  12  68 SW6       30.22S WCI  13
HAMILTON       FAIR      22  13  68 SW6       30.19R WCI  14
DAYTON         FAIR      20  12  71 SW15      30.12S WCI   6
WRIGHT-PAT AFB FAIR      21   6  53 S13       30.13S WCI   8
DAYTON GENERAL FAIR      20  11  68 S9        30.13S WCI   9
WILMINGTON     FAIR      18  11  74 SW14      30.14S WCI   4
$$

OHZ036-037-039>041-045>050-054>059-063>069-073>076-082>088-191200-
  CENTRAL AND SOUTHEAST OHIO

CITY           SKY/WX    TMP DP  RH WIND       PRES   REMARKS
COLUMBUS       FAIR      18  10  71 S6        30.14F WCI  10
OSU AIRPORT    FAIR      19  11  70 SW7       30.13R WCI  10
BOLTON FIELD   FAIR      19  11  71 SW12      30.14S WCI   6
RICKENBACK AFB FAIR      19  10  70 S10       30.15F WCI   7
NEWARK         FAIR      20   9  62 S8        30.13F WCI  10
MARION         FAIR      18  10  71 S13       30.08S WCI   5
LANCASTER      FAIR      22  10  60 SW8       30.15F WCI  12
ZANESVILLE     FAIR      17   8  67 S7        30.15S WCI   8
NEW PHILLY     FAIR      21   9  59 S6        30.13S WCI  13
$$




USA.gov is the U.S. government's official web portal to all federal, state and local government web resources and services.